DELTA 1 DEB, 25270

Orbit data source: Space-Track

DELTA 1 DEB, 25270 is space debris in LEO originally from a launch on Thu, 04 Jul 1968 UTC launched from the Air Force Western Test Range (AFWTR). Debris objects in space refer to the collection of defunct objects orbiting the Earth. Examples of debris include non-operational satellites, rocket bodies, and fragments generated from explosions, collisions, or faulty payload assembly.

Loading next visibility...
Identifier
25270, 1968-055E
Orbit
LEO
Country
Flag of USUS
Related business
Manufacturer
Unknown
Mission
Spacecraft
Bus & Motor
Unknown
Mass
Unknown
Launch date (UTC)
1968-07-04 (58 years ago)
Launch vehicle
Unknown
Launch site
Air Force Western Test Range (AFWTR)
Object type
Payload
Rocket body
Debris
Shape & HBR
Unknown shape, 0.1 m
Radar Cross Section
Medium (>0.1 m² and <1 m²)

Expand to show TLE details & history
Last TLE update: 5 days ago

TLE from 5 days ago
0 DELTA 1 DEB
1 25270U 68055E   26173.51313393  .00000641  00000-0  11553-2 0  9995
2 25270 120.5659  33.1963 2237398 322.7657  23.6918 10.04569161445440
Epoch: 2026-06-22T12:18Z
TLE epoch observation values (Epoch: 2026-06-22T12:18:54.771Z)
Latitude
-0.00001°
Longitude
-62.22988°
Altitude
940.206 km
Speed
8.064 km/s
True Right ascension
02h 12m 47s
True Declination
0° 00' 00"
Sunlit
Object was in daylight at epoch
Visualization orbit readout
Latitude
Unknown
Longitude
Unknown
Altitude
Unknown
Speed
Unknown
Apparent Right ascension
Unknown
Apparent Declination
Unknown
Sunlit
N/A
Visualization observer readout
Local Sidereal Time
04:29:50
Azimuth
Unknown
Elevation
Unknown
Doppler factor
Unknown
Orbital elements
Apogee altitude
4,724.083 km
Perigee altitude
664.383 km
Semi-major axis
9,072.37 km
Eccentricity
0.22374
Inclination
120.5659°
RAAN
33.1963°
Arg. of periapsis
322.7657°
True anomaly
37.34096°
Mean anomaly
23.6918°
Eccentric anomaly
30.12584°
Mean motion
2.51167 °/min
Orbital period
143.33 mins
BSTAR
0.0011553
Loading maneuver chart data...
Computing Atmospheric mass density...
Loading historical data...
Loading historical data...
Loading historical data...
Loading historical data...
Loading historical data...
Loading historical data...
Loading historical data...

Documentation

Showing up to 5 results
|